Content
SEND FEEDBACK

Daily
Averages
Monthly
Summary
United States of America

ACHANG BAY, GUAM


Home > North America > United States > Guam
Elevation: 30 feet     Latitude: 13 16N     Longitude: 144 45E

WEATHER
 
SELECT A DAY
Number of Records: 341,524;   Date Range: 1/1/95 - 7/7/14
 
SHARE

PRINT THIS DATA

[ ← Previous Day ]
WEATHER ALMANAC - DECEMBER 24, 2013
[ Next Day → ]
[ °C ]   °F
Weather ElementAverageHighLow
Temperature79.1 °F82.4 °F (10:43 am)75.2 °F (3:39 am)
Dewpoint73.4 °F77 °F (12:50 am) (7:00 pm)
Humidity86.1 %100 % (3:39 am)74 % (10:43 am)
Barometer29.93 in29.98 in (8:23 am)29.86 in (2:58 am)
Wind Speed23.4 mph28.8 mph (10:48 pm)
Wind Gust38 mph (5:58 am)
Weather ElementAverage
Visibility9.6 mi
Wind DirectionENE (51.1 °)

Weather ElementTotal
Precipitation0.17 in
Cooling Degree Days13.8 (Base 65)
Growing Degree Days28.8 (Base 50)
Averaged from 131 records on December 24, 2013
WEATHER CONDITIONS BREAKOUT
WIND DIRECTION BREAKOUT
WEATHER BY HOUR - DECEMBER 24, 2013
[ °C ]   °F
Local TimeTemperatureDewpointHumidityBarometerVisibilityWind DirectionWind SpeedGust SpeedPrecipitationEventsConditions
12:43 AM78.8 °F75.2 °F89 %29.92 in10.0 miNE (40°)19.6 mphScattered Clouds
12:50 AM78.8 °F77.0 °F94 %29.92 in10.0 miNE (50°)18.4 mphRainLight Rain
12:58 AM78.3 °F75.4 °F91 %29.89 in10.0 miNE (50°)20.7 mph26.5 mph0.00 inRainLight Rain
12:59 AM78.8 °F75.2 °F89 %29.92 in10.0 miNE (50°)19.6 mph26.5 mphMostly Cloudy
1:09 AM78.8 °F75.2 °F89 %29.92 in7.0 miNE (50°)21.9 mph35.7 mphMostly Cloudy
1:10 AM78.8 °F75.2 °F89 %29.92 in6.0 miNE (50°)19.6 mph35.7 mphRainRain
1:15 AM77.0 °F75.2 °F94 %29.92 in6.0 miNE (40°)20.7 mph35.7 mphRainLight Rain
1:20 AM77.0 °F75.2 °F94 %29.91 in10.0 miNE (40°)23.0 mph31.1 mphScattered Clouds
1:40 AM78.8 °F75.2 °F89 %29.91 in10.0 miNE (40°)24.2 mph27.6 mphMostly Cloudy
1:58 AM78.1 °F74.7 °F89 %29.88 in10.0 miNE (50°)27.6 mph33.4 mph0.00 inMostly Cloudy
2:00 AM78.8 °F75.2 °F89 %29.91 in10.0 miNE (50°)20.7 mph35.7 mphRainLight Rain
2:10 AM77.0 °F75.2 °F94 %29.90 in10.0 miNE (40°)18.4 mph35.7 mphMostly Cloudy
2:20 AM77.0 °F75.2 °F94 %29.90 in10.0 miNE (50°)21.9 mph27.6 mphMostly Cloudy
2:40 AM78.8 °F75.2 °F89 %29.89 in10.0 miNE (40°)19.6 mph31.1 mphMostly Cloudy
2:58 AM78.3 °F74.3 °F88 %29.86 in10.0 miNNE (30°)21.9 mph28.8 mph0.00 inMostly Cloudy
2:59 AM78.8 °F75.2 °F89 %29.89 in10.0 miNE (40°)23.0 mph28.8 mphRainLight Rain
3:04 AM77.0 °F75.2 °F94 %29.89 in5.0 miNE (50°)21.9 mph32.2 mphRainRain
3:14 AM77.0 °F75.2 °F94 %29.89 in8.0 miNE (50°)18.4 mph29.9 mphRainLight Rain
3:19 AM77.0 °F75.2 °F94 %29.89 in10.0 miNE (50°)23.0 mph28.8 mphRainLight Rain
3:20 AM77.0 °F75.2 °F94 %29.89 in10.0 miNE (40°)21.9 mph28.8 mphOvercast
3:24 AM77.0 °F75.2 °F94 %29.89 in10.0 miNE (50°)21.9 mph28.8 mphRainLight Rain
3:39 AM75.2 °F75.2 °F100 %29.89 in2.5 miNE (50°)17.3 mph28.8 mphRainRain
3:44 AM75.2 °F75.2 °F100 %29.89 in4.0 miNE (50°)18.4 mph27.6 mphRainLight Rain
3:58 AM75.2 °F0.0 °F29.87 in4.0 miENE (60°)21.9 mph28.8 mph0.13 inRainLight Rain
4:14 AM75.2 °F0.0 °F29.90 in4.0 miNE (50°)21.9 mph28.8 mphHaze
4:29 AM77.0 °F75.2 °F94 %29.90 in10.0 miNE (50°)19.6 mphMostly Cloudy
4:39 AM77.0 °F75.2 °F94 %29.90 in7.0 miNE (50°)24.2 mph33.4 mphRainLight Rain
4:49 AM77.0 °F75.2 °F94 %29.90 in9.0 miNE (50°)23.0 mph32.2 mphMostly Cloudy
4:50 AM77.0 °F75.2 °F94 %29.90 in10.0 miNE (50°)24.2 mph32.2 mphRainLight Rain
4:55 AM77.0 °F75.2 °F94 %29.90 in10.0 miNE (50°)23.0 mph32.2 mphRainLight Rain
4:58 AM76.8 °F75.0 °F94 %29.87 in10.0 miNE (50°)24.2 mph31.1 mph0.04 inRainLight Rain
5:01 AM77.0 °F75.2 °F94 %29.90 in10.0 miNE (50°)20.7 mph31.1 mphMostly Cloudy
5:46 AM77.0 °F75.2 °F94 %29.91 in10.0 miNE (50°)20.7 mph33.4 mphMostly Cloudy
5:51 AM77.0 °F75.2 °F94 %29.91 in10.0 miNE (50°)25.3 mph28.8 mphMostly Cloudy
5:58 AM77.9 °F75.0 °F91 %29.89 in10.0 miNE (50°)26.5 mph38.0 mph0.00 inMostly Cloudy
6:03 AM78.8 °F73.4 °F83 %29.92 in10.0 miENE (60°)26.5 mph38.0 mphMostly Cloudy
6:08 AM78.8 °F73.4 °F83 %29.92 in10.0 miNE (50°)21.9 mph33.4 mphMostly Cloudy
6:18 AM78.8 °F73.4 °F83 %29.92 in10.0 miNE (50°)25.3 mph33.4 mphMostly Cloudy
6:53 AM78.8 °F75.2 °F89 %29.93 in10.0 miNE (50°)23.0 mph31.1 mphMostly Cloudy
6:58 AM78.3 °F74.5 °F88 %29.91 in10.0 miNE (50°)27.6 mph31.1 mphMostly Cloudy
7:03 AM78.8 °F73.4 °F83 %29.94 in10.0 miNE (50°)23.0 mph34.5 mphMostly Cloudy
7:13 AM78.8 °F73.4 °F83 %29.94 in10.0 miNE (50°)23.0 mph33.4 mphMostly Cloudy
7:18 AM78.8 °F75.2 °F89 %29.94 in10.0 miNE (50°)25.3 mph33.4 mphMostly Cloudy
7:23 AM78.8 °F75.2 °F89 %29.94 in10.0 miNE (50°)25.3 mph31.1 mphMostly Cloudy
7:28 AM78.8 °F75.2 °F89 %29.94 in10.0 miNE (50°)24.2 mph31.1 mphMostly Cloudy
7:58 AM79.2 °F73.8 °F83 %29.94 in10.0 miNE (50°)25.3 mph28.8 mphMostly Cloudy
8:18 AM78.8 °F73.4 °F83 %29.97 in10.0 miENE (60°)23.0 mph32.2 mphMostly Cloudy
8:23 AM78.8 °F73.4 °F83 %29.98 in10.0 miNE (50°)24.2 mph29.9 mphMostly Cloudy
8:33 AM78.8 °F73.4 °F83 %29.98 in10.0 miNE (50°)24.2 mph32.2 mphMostly Cloudy
8:43 AM78.8 °F73.4 °F83 %29.98 in10.0 miNE (50°)25.3 mph32.2 mphMostly Cloudy
8:53 AM78.8 °F73.4 °F83 %29.98 in10.0 miNE (50°)27.6 mph32.2 mphMostly Cloudy
8:57 AM78.8 °F75.2 °F89 %29.98 in10.0 miENE (60°)24.2 mph29.9 mphRainLight Rain
8:58 AM78.8 °F75.2 °F89 %29.96 in10.0 miENE (60°)24.2 mph29.9 mphRainLight Rain
9:03 AM80.6 °F75.2 °F84 %29.98 in10.0 miENE (60°)24.2 mph31.1 mphRainLight Rain
9:06 AM80.6 °F75.2 °F84 %29.98 in10.0 miNE (50°)21.9 mph31.1 mphScattered Clouds
9:26 AM80.6 °F73.4 °F79 %29.98 in10.0 miNE (50°)24.2 mph28.8 mphMostly Cloudy
9:31 AM80.6 °F73.4 °F79 %29.98 in10.0 miENE (60°)23.0 mph29.9 mphMostly Cloudy
9:36 AM80.6 °F73.4 °F79 %29.98 in10.0 miNE (50°)23.0 mph29.9 mphMostly Cloudy
9:51 AM80.6 °F73.4 °F79 %29.97 in10.0 miNE (50°)23.0 mphMostly Cloudy
9:58 AM80.6 °F73.4 °F79 %29.94 in10.0 miNE (50°)23.0 mph29.9 mph0.00 inMostly Cloudy
10:43 AM82.4 °F73.4 °F74 %29.97 in10.0 miNE (50°)24.2 mph33.4 mphMostly Cloudy
10:58 AM81.5 °F73.8 °F77 %29.94 in10.0 miNE (50°)25.3 mph31.1 mphMostly Cloudy
11:13 AM82.4 °F73.4 °F74 %29.96 in10.0 miNE (50°)25.3 mph29.9 mphMostly Cloudy
11:28 AM82.4 °F73.4 °F74 %29.96 in10.0 miNE (50°)23.0 mph31.1 mphMostly Cloudy
11:58 AM81.3 °F73.9 °F78 %29.92 in10.0 miNE (50°)23.0 mph28.8 mphMostly Cloudy
12:13 PM82.4 °F73.4 °F74 %29.94 in10.0 miENE (60°)19.6 mphScattered Clouds
12:18 PM80.6 °F73.4 °F79 %29.94 in10.0 miNE (50°)21.9 mph26.5 mphMostly Cloudy
12:28 PM80.6 °F73.4 °F79 %29.94 in10.0 miNE (50°)21.9 mph27.6 mphScattered Clouds
12:33 PM80.6 °F73.4 °F79 %29.94 in10.0 miNE (50°)20.7 mphMostly Cloudy
12:58 PM81.7 °F73.9 °F77 %29.89 in10.0 miENE (60°)19.6 mphMostly Cloudy
1:43 PM80.6 °F73.4 °F79 %29.91 in10.0 miNE (50°)20.7 mph28.8 mphMostly Cloudy
1:58 PM80.8 °F74.8 °F82 %29.87 in10.0 miNE (50°)20.7 mphMostly Cloudy
2:23 PM80.6 °F75.2 °F84 %29.90 in10.0 miENE (60°)23.0 mph27.6 mphMostly Cloudy
2:38 PM80.6 °F75.2 °F84 %29.89 in10.0 miNE (50°)24.2 mph33.4 mphMostly Cloudy
2:48 PM80.6 °F75.2 °F84 %29.89 in10.0 miNE (50°)20.7 mphMostly Cloudy
2:53 PM82.4 °F75.2 °F79 %29.89 in10.0 miNE (50°)18.4 mphScattered Clouds
2:58 PM81.7 °F74.5 °F79 %29.86 in10.0 miNE (50°)18.4 mph28.8 mphScattered Clouds
3:03 PM80.6 °F75.2 °F84 %29.89 in10.0 miNE (50°)23.0 mph31.1 mphMostly Cloudy
3:28 PM80.6 °F73.4 °F79 %29.89 in10.0 miNE (50°)24.2 mph31.1 mphMostly Cloudy
3:33 PM82.4 °F73.4 °F74 %29.89 in10.0 miENE (60°)23.0 mph31.1 mphMostly Cloudy
3:38 PM80.6 °F73.4 °F79 %29.89 in10.0 miNE (50°)24.2 mph31.1 mphMostly Cloudy
3:53 PM80.6 °F75.2 °F84 %29.90 in10.0 miNE (50°)23.0 mph28.8 mphMostly Cloudy
3:58 PM81.1 °F74.8 °F81 %29.87 in10.0 miNE (50°)25.3 mph29.9 mphMostly Cloudy
4:08 PM80.6 °F73.4 °F79 %29.90 in10.0 miENE (60°)25.3 mph29.9 mphMostly Cloudy
4:13 PM80.6 °F73.4 °F79 %29.90 in10.0 miENE (60°)25.3 mphScattered Clouds
4:58 PM79.9 °F73.9 °F82 %29.88 in10.0 miNE (50°)23.0 mph29.9 mphScattered Clouds
5:23 PM80.6 °F75.2 °F84 %29.91 in10.0 miNE (50°)23.0 mph31.1 mphMostly Cloudy
5:58 PM80.6 °F73.4 °F79 %29.89 in10.0 miNE (50°)21.9 mph28.8 mphMostly Cloudy
6:08 PM80.6 °F73.4 °F79 %29.92 in10.0 miNE (50°)24.2 mph29.9 mphMostly Cloudy
6:23 PM78.8 °F73.4 °F83 %29.93 in10.0 miNE (50°)23.0 mph31.1 mphMostly Cloudy
6:28 PM78.8 °F73.4 °F83 %29.93 in10.0 miENE (60°)26.5 mph31.1 mphMostly Cloudy
6:38 PM78.8 °F73.4 °F83 %29.93 in10.0 miNE (50°)23.0 mph29.9 mphMostly Cloudy
6:58 PM79.5 °F74.7 °F85 %29.91 in10.0 miNE (50°)24.2 mph28.8 mphMostly Cloudy
7:18 PM80.6 °F73.4 °F79 %29.94 in10.0 miNE (50°)26.5 mph32.2 mphMostly Cloudy
7:23 PM80.6 °F73.4 °F79 %29.94 in10.0 miNE (50°)24.2 mph32.2 mphMostly Cloudy
7:33 PM80.6 °F73.4 °F79 %29.94 in10.0 miNE (50°)21.9 mph28.8 mphMostly Cloudy
7:48 PM80.6 °F73.4 °F79 %29.94 in10.0 miNE (50°)21.9 mph28.8 mphMostly Cloudy
7:58 PM79.9 °F74.5 °F83 %29.92 in10.0 miENE (60°)26.5 mphMostly Cloudy
8:18 PM78.8 °F73.4 °F83 %29.95 in10.0 miNE (50°)20.7 mph28.8 mphMostly Cloudy
8:21 PM78.8 °F75.2 °F89 %29.95 in10.0 miNE (50°)26.5 mph32.2 mphRainLight Rain
8:26 PM78.8 °F75.2 °F89 %29.95 in9.0 miNE (50°)21.9 mph32.2 mphLight Drizzle
8:31 PM77.0 °F75.2 °F94 %29.95 in9.0 miNE (50°)25.3 mph32.2 mphLight Drizzle
8:34 PM78.8 °F75.2 °F89 %29.96 in8.0 miNE (50°)27.6 mph35.7 mphMostly Cloudy
8:35 PM78.8 °F75.2 °F89 %29.96 in8.0 miNE (50°)21.9 mph35.7 mphLight Drizzle
8:43 PM77.0 °F75.2 °F94 %29.95 in9.0 miNE (50°)18.4 mph35.7 mphMostly Cloudy
8:48 PM77.0 °F75.2 °F94 %29.95 in10.0 miNE (50°)25.3 mph32.2 mphMostly Cloudy
8:58 PM78.4 °F75.2 °F90 %29.94 in10.0 miNE (50°)25.3 mph31.1 mph0.00 inMostly Cloudy
9:13 PM78.8 °F75.2 °F89 %29.96 in10.0 miNE (50°)20.7 mphMostly Cloudy
9:22 PM78.8 °F75.2 °F89 %29.96 in10.0 miNE (50°)27.6 mph36.8 mphLight Drizzle
9:27 PM78.8 °F75.2 °F89 %29.96 in10.0 miNE (50°)27.6 mph38.0 mphLight Drizzle
9:32 PM78.8 °F75.2 °F89 %29.96 in10.0 miNE (50°)25.3 mph38.0 mphOvercast
9:37 PM78.8 °F75.2 °F89 %29.96 in10.0 miNE (50°)24.2 mph38.0 mphOvercast
9:42 PM78.8 °F75.2 °F89 %29.96 in10.0 miNE (50°)21.9 mphOvercast
9:58 PM78.8 °F74.8 °F88 %29.94 in10.0 miNE (50°)24.2 mph27.6 mph0.00 inMostly Cloudy
10:13 PM78.8 °F75.2 °F89 %29.96 in10.0 miNE (50°)25.3 mph29.9 mphMostly Cloudy
10:18 PM78.8 °F75.2 °F89 %29.96 in10.0 miNE (50°)25.3 mph35.7 mphMostly Cloudy
10:23 PM78.8 °F73.4 °F83 %29.96 in10.0 miENE (60°)27.6 mph35.7 mphOvercast
10:28 PM78.8 °F75.2 °F89 %29.96 in10.0 miENE (60°)26.5 mph33.4 mphMostly Cloudy
10:33 PM78.8 °F75.2 °F89 %29.96 in10.0 miENE (60°)26.5 mph33.4 mphMostly Cloudy
10:38 PM78.8 °F75.2 °F89 %29.96 in10.0 miNE (50°)25.3 mph34.5 mphOvercast
10:48 PM78.8 °F75.2 °F89 %29.96 in10.0 miNE (50°)28.8 mph34.5 mphMostly Cloudy
10:53 PM78.8 °F75.2 °F89 %29.96 in10.0 miENE (60°)25.3 mph32.2 mphMostly Cloudy
10:58 PM79.5 °F74.3 °F84 %29.94 in10.0 miENE (60°)26.5 mph32.2 mphMostly Cloudy
11:03 PM78.8 °F75.2 °F89 %29.95 in10.0 miNE (50°)25.3 mph32.2 mphMostly Cloudy
11:08 PM78.8 °F75.2 °F89 %29.95 in10.0 miNE (50°)24.2 mph32.2 mphMostly Cloudy
11:28 PM78.8 °F75.2 °F89 %29.94 in10.0 miNE (50°)27.6 mph31.1 mphMostly Cloudy
11:33 PM78.8 °F75.2 °F89 %29.94 in10.0 miENE (60°)28.8 mph35.7 mphMostly Cloudy
11:38 PM78.8 °F75.2 °F89 %29.94 in10.0 miENE (60°)23.0 mph35.7 mphMostly Cloudy
11:43 PM78.8 °F75.2 °F89 %29.94 in10.0 miENE (60°)27.6 mph34.5 mphMostly Cloudy
11:53 PM80.6 °F75.2 °F84 %29.94 in10.0 miNE (50°)27.6 mph35.7 mphMostly Cloudy
11:58 PM79.9 °F75.0 °F85 %29.91 in10.0 miENE (60°)26.5 mph35.7 mphMostly Cloudy
Hourly data recorded from PGUA, located miles away from Achang Bay, Guam







STORIES FROM OUR PARTNERS